Phoenix, AZ

6:18 AM MST on February 08, 2016 (GMT -0700)
Phoenix-Deer Valley Municipal

Weather History for KDVT - March, 2012

Change the Weather History Date:

Thursday, March 8, 2012

  Actual Average Record
Temperature  
Mean Temperature 56 °F -  
Max Temperature 68 °F 70 °F 88 °F (2004)
Min Temperature 44 °F 48 °F 37 °F (1998)
Degree Days  
Heating Degree Days 9    
Growing Degree Days 6 (Base 50)    
Moisture  
Dew Point 19 °F    
Average Humidity 24    
Maximum Humidity 33    
Minimum Humidity 16    
Precipitation  
Precipitation 0.00 in - - ()
Sea Level Pressure  
Sea Level Pressure 30.15 in    
Wind  
Wind Speed 3 mph (SSE)    
Max Wind Speed 13 mph    
Max Gust Speed 17 mph    
Visibility 10 miles    
Events      
Averages and records for this station are not official NWS values.
T = Trace of Precipitation, MM = Missing Value Source: NWS Daily Summary

Daily Weather History Graph

Daily Weather History Graph

Search for Another Location

Airport or City:

Trip Planner

Search our weather history database for the weather conditions in past years. The results will help you decide how hot, cold, wet, or windy it might be!

Date:

Astronomy

Mar. 08, 2012 Rise Set
Actual Time 6:47 AM MST 6:31 PM MST
Civil Twilight 6:22 AM MST 6:55 PM MST
Nautical Twilight 5:53 AM MST 7:24 PM MST
Astronomical Twilight 5:24 AM MST 7:53 PM MST
Moon 7:17 PM MST 6:36 AM MST
Length of Visible Light 12h 33m
Length of Day
11h 43m
Full, 100% of the Moon is Illuminated
Mar 8
Full
Mar 14
Last Quarter
Mar 22
New
Mar 30
First Quarter
Apr 6
Full

Hourly Weather History & Observations

Time (MST) Temp. Windchill Dew Point Humidity Pressure Visibility Wind Dir Wind Speed Gust Speed Precip Events Conditions
12:53 AM 48.0 °F - 16.0 °F 28% 30.02 in 10.0 mi Calm Calm - N/A   Clear
1:53 AM 46.0 °F 44.8 °F 15.1 °F 29% 30.04 in 10.0 mi ENE 3.5 mph - N/A   Clear
2:53 AM 44.1 °F - 15.1 °F 31% 30.05 in 10.0 mi Calm Calm - N/A   Clear
3:53 AM 45.0 °F 42.6 °F 16.0 °F 31% 30.06 in 10.0 mi NNE 4.6 mph - N/A   Clear
4:53 AM 45.0 °F - 16.0 °F 31% 30.07 in 10.0 mi Calm Calm - N/A   Clear
5:53 AM 46.9 °F - 17.1 °F 30% 30.10 in 10.0 mi Calm Calm - N/A   Clear
6:53 AM 45.0 °F - 17.1 °F 33% 30.14 in 10.0 mi Calm Calm - N/A   Clear
7:53 AM 48.0 °F - 18.0 °F 30% 30.18 in 10.0 mi East 6.9 mph - N/A   Clear
8:53 AM 48.9 °F - 19.0 °F 31% 30.19 in 10.0 mi SE 3.5 mph - 0.00 in   Clear
9:53 AM 55.9 °F - 19.0 °F 24% 30.19 in 10.0 mi Calm Calm - N/A   Clear
10:53 AM 59.0 °F - 19.9 °F 22% 30.19 in 10.0 mi South 5.8 mph - N/A   Clear
11:53 AM 62.1 °F - 21.0 °F 21% 30.18 in 10.0 mi Calm Calm - N/A   Clear
12:53 PM 64.0 °F - 21.9 °F 20% 30.17 in 10.0 mi WSW 10.4 mph - N/A   Clear
1:53 PM 66.0 °F - 21.9 °F 19% 30.14 in 10.0 mi SSW 12.7 mph 17.3 mph N/A   Clear
2:53 PM 66.0 °F - 21.0 °F 18% 30.14 in 10.0 mi WSW 3.5 mph - N/A   Clear
3:53 PM 68.0 °F - 21.0 °F 17% 30.12 in 10.0 mi SW 8.1 mph - N/A   Clear
4:53 PM 68.0 °F - 21.0 °F 17% 30.13 in 10.0 mi WSW 5.8 mph - N/A   Clear
5:53 PM 68.0 °F - 19.9 °F 16% 30.14 in 10.0 mi WSW 5.8 mph - N/A   Clear
6:53 PM 66.0 °F - 21.0 °F 18% 30.17 in 10.0 mi WSW 5.8 mph - N/A   Clear
7:53 PM 63.0 °F - 21.0 °F 20% 30.19 in 10.0 mi Calm Calm - N/A   Clear
8:53 PM 62.1 °F - 21.0 °F 21% 30.21 in 10.0 mi East 4.6 mph - N/A   Clear
9:53 PM 59.0 °F - 21.0 °F 23% 30.22 in 10.0 mi NE 8.1 mph - N/A   Clear
10:53 PM 59.0 °F - 21.0 °F 23% 30.22 in 10.0 mi NE 8.1 mph - N/A   Clear
11:53 PM 60.1 °F - 19.9 °F 21% 30.22 in 10.0 mi ENE 6.9 mph - N/A   Clear